Back to catalog

STARLINK-36936

AliveCommunicationsVLEO
NORAD 68012·PAYLOAD·🇺🇸 United States

Launched Feb 27, 2026 from Vandenberg Space Force Base

Loading…

Next Passes (next 24 hours)

TLE

FreshSource: CelesTrak SupGP

Epoch: Sep 14, 2026, 15:45 UTC

1 68012C 26039AC  26257.65673611 -.00038763  00000+0 -14041-2 0  2571
2 68012  43.0026  61.4116 0001288 268.9635 221.3273 15.27595206    14

Track STARLINK-36936 in real time with AllMySat

Download on the App Store